{"data":{"norad_id":68863,"intl_designator":"2026-094AA","name":"STARLINK-37430","alt_names":[],"object_type":"PAYLOAD","status":"ACTIVE","operator":null,"country":"US","launch_date":"2026-04-26","launch_site_code":"AFWTR","launch_vehicle":null,"mission":null,"orbit_class":"UNKNOWN","rcs_meters":null,"size_class":null,"mass_kg":null,"dimensions":null,"purposes":["comms"],"wikipedia_slug":null,"has_3d_model":false,"image_url":null,"decayed_at":null,"tle_current":{"epoch":"2026-09-19T23:40:17.806944Z","epoch_age_seconds":59997,"freshness":"FRESH","line1":"1 68863U 26094AA  26262.98631721  .00013444  00000+0  41776-3 0  9990","line2":"2 68863  97.2851 276.1901 0001330  51.8047 308.3315 15.33463563 22582","mean_motion":15.33463563,"eccentricity":0.000133,"inclination_deg":97.2851,"raan_deg":276.1901,"arg_perigee_deg":51.8047,"mean_anomaly_deg":308.3315,"bstar":0.00041776,"rev_number":2258,"period_min":93.905067896289,"perigee_km":464.57774248983,"apogee_km":466.3981467251,"semimajor_km":6843.6249446075,"source":"CELESTRAK","updated_at":"2026-09-20T09:00:44.045292Z"}}}